Location: Kernascl�den
(48.0062°N, 3.3198°W)
Time: 22:55:34
(UTC+00:00)

Lacrosse 5 - Pass Details

Date: 21 January 2021
Orbit: 715 x 724 km, 57.0° (Epoch: 03 March)

Event Time Altitude Azimuth Distance (km) Brightness Sun altitude
Rises 18:21:57 0° 306° (NW) 3,124 5.8 -14.1°
Reaches altitude 10° 18:24:20 10° 306° (NW) 2,201 4.9 -14.5°
Maximum altitude 18:29:25 90° 32° (NNE) 721 1.8 -15.3°
Enters shadow 18:34:02 13° 128° (SE) 2,020 3.8 -16.0°
